sat.trackr.live / text

‹ back to catalog

STARLINK-36957

NORAD 67989 · 2026-039D

PAYLOAD ACTIVE UNKNOWN

§ Identity

Operator
Country
US
Launch date
2026-02-27
Launch site
AFETR
Launch vehicle
Mass (kg)
RCS (m²)

Purposes: comms

External: N2YO · Heavens-Above · Gunter

§ Orbital elements

Epoch: 2026-09-19T15:28:35.795136Z

Period
94.27 min
Inclination
42.9995°
Eccentricity
0.0001887
Mean motion
15.27589848 rev/d
Perigee alt
481.7 km
Apogee alt
484.3 km
Semi-major
6,861.2 km
B*
3.9418e-4
RAAN
33.8094°
Arg perigee
282.9647°
Mean anomaly
77.0994°
Rev number
3,136

§ Raw data

STARLINK-369571 67989U 26039D   26262.64485874  .00010604  00000+0  39418-3 0  99912 67989  42.9995  33.8094 0001887 282.9647  77.0994 15.27589848 31364

JSON: /api/v1/satellites/67989 · /tle

For live sub-satellite position, see the globe view (requires WebGL).

§ Visibility from observer

Set your observer location to see the next 7 days of passes ≥ 10°. The values pass through the URL so the page stays shareable.

No JS? Fill the form by hand. The geolocation button needs JavaScript.